Regional Weather Roundup
Issued by NWS

Home | Current Version | Previous Version | Text Only | Print | Product List | Glossary On
Versions: 1 2 3 4 5 6 7 8 9 10 11 12 13 14 15 16 17 18 19 20 21 22 23 24 25 26 27 28 29 30 31 32 33 34 35 36 37 38 39 40 41 42 43 44 45 46 47 48 49 50
000
ASUS43 KTOP 221608
RWRKS

WEATHER ROUNDUP FOR KANSAS
NATIONAL WEATHER SERVICE GOODLAND KS
1100 AM CDT FRI MAY 22 2015

NOTE:  "FAIR" INDICATES FEW OR NO CLOUDS BELOW 12,000 FEET WITH NO
SIGNIFICANT WEATHER AND/OR OBSTRUCTIONS TO VISIBILITY.

KSZ001>006-013>018-027>032-041>047-221700-
NORTHWEST KANSAS

CITY           SKY/WX    TMP DP  RH WIND       PRES   REMARKS
GOODLAND       LGT RAIN  48  47  96 SE21G30   30.07F FOG
HAYS           CLOUDY    54  45  71 S15G23    30.18S
HILL CITY      CLOUDY    51  47  86 S8        30.18S
RUSSELL        CLOUDY    54  50  86 S20       30.18S
$$

KSZ061>065-074>080-084>089-221700-
SOUTHWEST KANSAS

CITY           SKY/WX    TMP DP  RH WIND       PRES   REMARKS
DODGE CITY     CLOUDY    51  47  86 S20       30.17R
ELKHART          N/A     52  46  80 S18         N/A
GARDEN CITY    CLOUDY    49  48  97 SE24      30.11F
GREAT BEND     CLOUDY    54  46  76 S16G22    30.18S
LIBERAL        CLOUDY    54  48  82 SE18      30.13F
PRATT          CLOUDY    52  48  87 SE13      30.20S
$$

KSZ066>073-081>083-090>101-221700-
SOUTHEAST KANSAS

CITY           SKY/WX    TMP DP  RH WIND       PRES   REMARKS
CHANUTE        CLOUDY    62  50  64 S8        30.28F
COFFEYVILLE    CLOUDY    60  51  72 S7        30.28R
HUTCHINSON     CLOUDY    56  51  84 SE12      30.21F
MEDICINE LODGE   N/A     53  51  93 SE7       30.20S
NEWTON         CLOUDY    54  46  76 S9        30.24R
PARSONS        CLOUDY    62  52  69 S7        30.29S
WICHITA INTL   LGT RAIN  54  51  90 SE8       30.21R
WICHITA JABRA  CLOUDY    53  51  93 S10       30.22R
WICHITA MCCONL LGT RAIN  54  51  90 S9        30.22S
WINFIELD       LGT RAIN  53  52  96 SE13      30.22F FOG
$$

KSZ007>012-019>026-033>040-048>060-102>105-221700-
NORTHEAST KANSAS

CITY           SKY/WX    TMP DP  RH WIND       PRES   REMARKS
CONCORDIA      CLOUDY    55  48  77 SE7       30.21F
EMPORIA        CLOUDY    57  48  72 SE12      30.25F
LAWRENCE       CLOUDY    58  49  72 S5        30.28F
MANHATTAN      CLOUDY    60  47  61 SE10      30.23F
MARYSVILLE     CLOUDY    61  48  63 SE7       30.25S
OLATHE IND     CLOUDY    60  49  66 S7        30.29S
OLATHE EXE     CLOUDY    59  48  67 S10       30.29R
SALINA         CLOUDY    56  50  80 S9        30.22R
TOPEKA BILLARD CLOUDY    59  49  69 S5        30.27F
TOPEKA FORBES  CLOUDY    60  48  64 S10       30.27F
$$


USA.gov is the U.S. government's official web portal to all federal, state and local government web resources and services.